www.pogodaiklimat.ru

Погода и климат >> Архив погоды >> Чили >> Антофагаста


ПОГОДА в Антофагасте

  • Прогноз погоды в Антофагасте
  • Монитор погоды в Антофагасте

АРХИВ ПОГОДЫ в Антофагасте

Время (UTC), дата Ветер
(напр.,м/с)
 
Видим.   Явления Облачность Т
(С)
Тd
(С)
f
(%)
Тe
(С)
Тes
(С)
Комфортность P
(гПа)
Po
(гПа)
Тmin
(С)
Tmax
(С)
R
(мм)
R24
(мм)
S
(см)
21 16.03 Ю 7 15 км 1/1 900 м
[Sc]
+20.4 +14.4 68 +22 +23 комфорт 1011.7 995.6
00 17.03 Ю 5 25 км ясно +18.4 +13.7 74 +19 +19 1013.0 996.8 +23.3
03 17.03 Ю 4 25 км ясно +17.3 +14.2 82 +17 +17 1014.1 997.8
06 17.03 СВ 1 25 км ясно +16.9 +14.2 84 +18 +18 1014.0 997.7
09 17.03 В 2 20 км ясно +15.5 +12.5 82 +15 +15 1012.7 996.3
12 17.03 ЮВ 1 20 км ясно +17.5 +13.1 75 +19 +21 1013.2 996.9 +15.2
15 17.03 Ю 5 20 км ясно +21.0 +13.3 61 +24 +33 комфорт 1013.2 997.1
18 17.03 Ю 8 20 км 1/1 800 м
[Sc]
+20.5 +13.3 63 +22 +25 комфорт 1012.3 996.2
21 17.03 Ю 8 20 км 3/3 400 м
[Sc]
+19.5 +14.2 71 +20 +21 1011.3 995.1
00 18.03 Ю 5 15 км 3/3 300 м
[Sc]
+17.5 +13.9 79 +17 +17 1011.9 995.6 +21.4
03 18.03 ЮЗ 5 12 км 3/3 210 м
[Sc]
+16.5 +14.0 85 +16 +16 1012.3 996.0
06 18.03 ЮВ 2 12 км 1/1 600 м
[Sc]
+16.5 +13.3 81 +17 +17 1012.6 996.3
09 18.03 В 2 12 км ясно +15.3 +11.1 76 +15 +15 1012.5 996.1
12 18.03 ЮВ 1 10 км 9/9 930 м
[Sc]
+17.6 +12.6 72 +19 +19 1013.9 997.6 +15.3
15 18.03 З 4 10 км 6/6 900 м
[Sc]
+22.0 +13.2 57 +25 +29 комфорт 1014.4 998.3
18 18.03 Ю 6 10 км ясно +20.4 +12.7 61 +22 +28 комфорт 1014.0 997.9
21 18.03 Ю 6 10 км 3/3 500 м
[Sc]
+20.2 +13.3 65 +22 +23 комфорт 1014.2 998.0
00 19.03 Ю 5 20 км ясно +17.9 +13.9 77 +18 +18 1014.4 998.1 +23.0
03 19.03 ЮЗ 3 20 км 3/3 360 м
[Sc]
+16.7 +13.5 81 +17 +17 1014.8 998.5
06 19.03 В 2 20 км ясно +15.9 +12.3 79 +16 +16 1014.8 998.4
09 19.03 В 2 20 км ясно +15.4 +11.6 78 +16 +16 1013.6 997.2
12 19.03 В 2 10 км 1/1 600 м
[Sc]
+16.9 +12.5 75 +17 +19 1014.2 997.9 +15.0
15 19.03 Ю 5 10 км 1/1 600 м
[Sc]
+19.9 +12.3 62 +22 +29 комфорт 1014.4 998.2
18 19.03 ЮЗ 6 10 км 1/1 600 м
[Sc]
+20.3 +12.1 59 +22 +28 комфорт 1013.2 997.0
21 19.03 Ю 5 10 км 1/1 600 м
[Sc]
+19.7 +12.8 64 +21 +23 комфорт 1012.4 996.2
00 20.03 Ю 4 10 км ясно +18.0 +13.4 74 +18 +18 1012.9 996.6 +20.8
03 20.03 Ю 2 10 км ясно +16.5 +13.3 81 +17 +17 1013.6 997.3
06 20.03 В 1 10 км ясно +16.0 +12.2 78 +17 +17 1013.6 997.2
09 20.03 ЮВ 2 10 км ясно +15.7 +11.9 78 +16 +16 1012.6 996.2
12 20.03 СВ 1 15 км 3/3 700 м
[Sc]
+16.9 +12.5 75 +18 +20 1014.1 997.8 +14.5
15 20.03 Ю 5 20 км ясно +20.6 +12.7 61 +23 +32 комфорт 1014.5 998.3
18 20.03 Ю 6 20 км 1/1 450 м
[Sc]
+20.8 +12.9 61 +23 +29 комфорт 1013.8 997.7
21 20.03 Ю 6 15 км 1/1 480 м
[Sc]
+20.0 +13.8 67 +22 +23 комфорт 1013.5 997.3
00 21.03 Ю 2 10 км 1/1 500 м
[Sc]
+18.6 +13.7 73 +20 +20 1014.3 998.0 +22.0
03 21.03 ЮВ 2 10 км ясно +17.3 +12.7 74 +18 +18 1015.0 998.7
06 21.03 ЮВ 1 10 км ясно +16.6 +12.2 75 +17 +17 1014.3 998.0
09 21.03 В 2 10 км ясно +15.8 +11.4 75 +16 +16 1012.8 996.4
12 21.03 В 1 10 км ясно +17.3 +12.1 71 +19 +21 1013.7 997.4 +14.9
15 21.03 Ю 4 10 км ясно +20.9 +12.4 58 +23 +33 комфорт 1014.2 998.0
18 21.03 Ю 7 10 км 1/1 630 м
[Sc]
+20.7 +12.8 61 +23 +27 комфорт 1013.2 997.1
21 21.03 Ю 6 10 км 3/3 500 м
[Sc]
+20.0 +14.2 69 +22 +23 комфорт 1012.2 996.0
00 22.03 Ю 6 20 км 5/5 630 м
[Sc]
+18.6 +14.1 75 +19 +19 1013.3 997.1 +21.3
03 22.03 Ю 3 15 км 6/6 420 м
[Sc]
+17.7 +14.4 81 +18 +18 1014.3 998.0
06 22.03 В 1 20 км ясно +16.7 +14.2 85 +18 +18 1014.2 997.9
09 22.03 В 1 10 км ясно +15.7 +12.3 80 +16 +16 1013.6 997.2
12 22.03 В 1 20 км ясно +18.0 +13.4 74 +19 +21 1014.9 998.6 +15.4
15 22.03 ЮЗ 3 20 км ясно +21.4 +13.2 60 +24 +36 комфорт 1014.7 998.6
18 22.03 Ю 6 20 км ясно +20.9 +13.0 61 +23 +29 комфорт 1013.9 997.8
21 22.03 Ю 5 20 км 1/1 600 м
[Sc]
+20.4 +13.5 65 +23 +24 комфорт 1013.3 997.1
00 23.03 Ю 4 15 км ясно +18.5 +14.0 75 +19 +19 1014.0 997.7 +22.4
03 23.03 ЮВ 2 12 км ясно +17.2 +13.4 78 +18 +18 1014.6 998.3
06 23.03 В 2 12 км ясно +16.4 +12.4 77 +17 +17 1015.1 998.7
09 23.03 ЮВ 2 12 км ясно +15.9 +12.9 82 +16 +16 1014.6 998.2
12 23.03 В 2 10 км ясно +17.3 +12.3 72 +18 +20 1015.6 999.3 +15.5
15 23.03 ЮЗ 4 10 км ясно +21.1 +12.6 58 +23 +34 комфорт 1015.5 999.3
18 23.03 Ю 5 10 км ясно +21.3 +13.1 59 +24 +32 комфорт 1014.4 998.3

 

Местоположение метеостанции Антофагаста (Чили): широта -23.43 долгота -70.45 высота над уровнем моря 140 м.

В архиве по умолчанию представлена погода в Антофагасте за последнюю неделю. Архивные данные за месяц целиком и за предыдущие месяцы, начиная с января 2011 года, Вы можете получить, выбрав интересующий диапазон дат из раскрывающегося списка и нажав кнопку "Ввод!".


*Определитесь, кто Вы:
робот инопланетянин человек

Внимание! Время в таблицах - всемирное. Для получения местного времени необходимо прибавить поправку, которая равна -4 ч.

Смотрите также архив погоды в соседних городах и на ближайших метеорологических станциях:

Погода в Антофагаста университете (Чили) (28 км)
Погода в Каламе (Чили) (192 км)
Погода в Тальтале (Чили) (220 км)
Погода в Токонао (Чили) (251 км)
Погода в Икике (Чили) (324 км)
Погода в Икика университете (Чили) (353 км)
Погода в Кальдере (Чили) (426 км)
Погода в Копьяпо университете (Чили) (437 км)
Погода в Ла-Кьяке (Аргентина) (519 км)
Погода в Сальте (Аргентина) (529 км)

Пояснения к столбцам:

Ветер - указаны скорость ветра в м/с - средняя за 10 мин, порывы в срок и между сроками (в фигурных скобках) и направление, откуда дует ветер: С - северный, СВ - северо-восточный, В - восточный, ЮВ - юго-восточный, Ю - южный, ЮЗ - юго-западный, З - западный, СЗ - северо-западный.
Видимость - горизонтальная дальность видимости в метрах или километрах. При видимости от 1 до 10 км при отсутствии осадков обычно наблюдается дымка, при ухудшении видимости до 1 км и менее - туман. В сухую погоду видимость может ухудшаться дымом, пылью или мглою.
Явления - указаны атмосферные явления, наблюдавшиеся в срок или в последний час перед сроком; фигурными скобками обозначены явления, наблюдавшиеся между сроками (за 1-3 часа до срока); квадратными скобками обозначены град или гололедные отложения с указанием их диаметра в мм.
Облачность - указаны через наклонную черту общая и нижняя облачность в баллах и высота нижней границы облаков в метрах; квадратными скобками обозначены формы облаков: Ci - перистые, Cs - перисто-слоистые, Cc - перисто-кучевые, Ac - высококучевые, As - высокослоистые, Sc - слоисто-кучевые, Ns - слоисто-дождевые, Cu - кучевые, Cb - кучево-дождевые. Подробнее классификацию облаков см. в Атласе облаков (PDF).
T - Температура воздуха - температура, измеренная на высоте 2 м над землей.
Td - Температура точки росы - температура, при понижении до которой содержащийся в воздухе водяной пар достигнет насыщения.
f - Относительная влажность воздуха - влажноcть воздуха, измеренная на высоте 2 м над землей.
Te - Эффективная температура - температура, которую ощущает одетый по сезону человек в тени. Характеристика душности погоды. При расчете учитывается влияние влажности воздуха и скорости ветра на теплоощущения человека.
Tes - Эффективная температура на солнце - температура, которую ощущает человек, с поправкой на солнечный нагрев. Характеристика знойности погоды. Зависит от высоты солнца над горизонтом, облачности и скорости ветра. Ночью, в пасмурную погоду, а также при ветре 12 м/с и более поправка равна нулю.
P - Атмосферное давление - приведенное к уровню моря атмосферное давление.
Po - Атмосферное давление - измеренное на уровне метеостанции атмосферное давление.
Tmin - Минимальная температура - минимум температуры воздуха на высоте 2 м над землей.
Tmax - Максимальная температура - максимум температуры воздуха на высоте 2 м над землей.
R - Количество осадков - Количество выпавших осадков за период времени, мм. При наведении курсора мыши на число - период времени, за который выпало указанное количество осадков.
R24 - Количество осадков - Количество выпавших осадков за 24 часа, мм.
S - Снежный покров - Высота снежного покрова, см. При наведении курсора мыши на число - состояние снежного покрова и степень покрытия местности в баллах.